Find Starlink 32538

NORAD ID: 62170 Int'l Des: 2024-225 Owner: SPXS Country: US Constellation: starlink operational
LEOCIRCULAR

現在のビュー

3D地球を読み込み中...

About Starlink 32538

Starlink 32538 (NORAD 62170) is a starlink constellation satellite (v2 mini) launched Nov 30, 2024 by SPXS of US. It operates in LEO, CIRCULAR orbit with a mass of 730.00 kg.

Starlink 32538について

説明を読み込み中...

次回通過

Passes for default location (London). Set your location on the main map for personalized predictions.

高度履歴

Loading altitude history...

軌道要素

1 62170U 24225H 26171.44578507 .00001149 00000-0 10409-3 0 9990
2 62170 70.0007 265.5002 0003307 267.7287 92.3493 14.98334421 85264
Epoch: Jun 20, 2026 • Age: 22 hours

現在のステータス

高度 587.1 km
速度 7.57 km/s
衛星直下点 -44.86°S, 161.24°W
打ち上げ日 Nov 30, 2024
運用期間 1.5 years
タイプ internet

技術仕様

分類 Payload
質量 730.00 kg
乾燥質量 700.00 kg
総質量 730.00 kg
長さ 0.30 m
直径 4.10 m
スパン 29.00 m
形状 Box + pan
製造者 SPXS
バスタイプ Starlink V2M
フェーズステータス In Orbit
所有者/国 SPXS/US

Most Searched